Chillicothe, MO

1:20 AM CDT on October 17, 2017 (GMT -0500)
Chillicothe

Weather History for KCDJ - November, 2012

Change the Weather History Date:

Saturday, November 3, 2012

  Actual Average (KIRK) Record (KIRK)
Temperature  
Mean Temperature 46 °F -  
Max Temperature 57 °F 53 °F 79 °F (1964)
Min Temperature 33 °F 37 °F 9 °F (1991)
Degree Days  
Heating Degree Days 19    
Moisture  
Dew Point 32 °F    
Average Humidity 61    
Maximum Humidity 89    
Minimum Humidity 42    
Precipitation  
Precipitation 0.00 in - - ()
Sea Level Pressure  
Sea Level Pressure 30.14 in    
Wind  
Wind Speed 6 mph (North)    
Max Wind Speed 9 mph    
Max Gust Speed -    
Averages and records for this station are not official NWS values.
T = Trace of Precipitation, MM = Missing Value Source: NWS Daily Summary

Daily Weather History Graph

Daily Weather History Graph

Search for Another Location

Airport or City:

Trip Planner

Search our weather history database for the weather conditions in past years. The results will help you decide how hot, cold, wet, or windy it might be!

Date:

Astronomy

Nov. 03, 2012 Rise Set
Actual Time 7:45 AM CDT 6:09 PM CDT
Civil Twilight 7:17 AM CDT 6:37 PM CDT
Nautical Twilight 6:45 AM CDT 7:09 PM CDT
Astronomical Twilight 6:14 AM CDT 7:41 PM CDT
Moon 9:51 PM CDT (11/3) 11:50 AM CDT (11/3)
Length of Visible Light 11h 19m
Length of Day
10h 23m
Waning Gibbous, 80% of the Moon is Illuminated
Nov 3
Waning Gibbous
Nov 6
Last Quarter
Nov 13
New
Nov 20
First Quarter
Nov 28
Full

Hourly Weather History & Observations

Time (CDT) Temp. Windchill Dew Point Humidity Pressure Visibility Wind Dir Wind Speed Gust Speed Precip Events Conditions
12:52 AM 46.0 °F 41.9 °F 32.0 °F 58% 30.01 in - NNE 8.1 mph - N/A   Unknown
1:52 AM 45.0 °F 41.2 °F 32.0 °F 60% 30.01 in - North 6.9 mph - N/A   Unknown
2:52 AM 44.1 °F 40.8 °F 32.0 °F 63% 30.02 in - North 5.8 mph - N/A   Unknown
3:52 AM 43.0 °F 39.5 °F 32.0 °F 65% 30.02 in - North 5.8 mph - N/A   Unknown
4:52 AM 42.1 °F 37.7 °F 32.0 °F 67% 30.04 in - North 6.9 mph - N/A   Unknown
5:52 AM 39.9 °F 35.1 °F 30.9 °F 70% 30.07 in - NNW 6.9 mph - N/A   Unknown
6:52 AM 39.0 °F 33.4 °F 30.0 °F 70% 30.09 in - North 8.1 mph - N/A   Unknown
7:52 AM 37.9 °F 33.5 °F 28.9 °F 70% 30.12 in - North 5.8 mph - N/A   Unknown
8:52 AM 41.0 °F 37.1 °F 30.0 °F 65% 30.15 in - North 5.8 mph - N/A   Unknown
9:52 AM 45.0 °F 40.6 °F 30.9 °F 58% 30.16 in - North 8.1 mph - N/A   Unknown
10:52 AM 48.0 °F - 30.9 °F 52% 30.17 in - NNE 9.2 mph - N/A   Unknown
11:52 AM 51.1 °F - 32.0 °F 48% 30.17 in - Variable 5.8 mph - N/A   Unknown
12:52 PM 54.0 °F - 34.0 °F 47% 30.17 in - North 8.1 mph - N/A   Unknown
1:52 PM 55.0 °F - 34.0 °F 45% 30.17 in - North 8.1 mph - N/A   Unknown
2:52 PM 55.9 °F - 33.1 °F 42% 30.17 in - Variable 4.6 mph - N/A   Unknown
3:52 PM 57.0 °F - 34.0 °F 42% 30.17 in - North 6.9 mph - N/A   Unknown
4:52 PM 57.0 °F - 34.0 °F 42% 30.18 in - Variable 5.8 mph - N/A   Unknown
5:52 PM 54.0 °F - 33.1 °F 45% 30.18 in - ENE 3.5 mph - N/A   Unknown
6:52 PM 45.0 °F - 34.0 °F 65% 30.21 in - Calm Calm - N/A   Unknown
7:52 PM 41.0 °F - 33.1 °F 73% 30.22 in - Calm Calm - N/A   Unknown
8:52 PM 37.9 °F - 32.0 °F 79% 30.22 in - Calm Calm - N/A   Unknown
9:52 PM 37.9 °F - 32.0 °F 79% 30.24 in - Calm Calm - N/A   Unknown
10:52 PM 35.1 °F - 30.0 °F 82% 30.23 in - Calm Calm - N/A   Unknown
11:52 PM 33.1 °F - 30.0 °F 89% 30.25 in - Calm Calm - N/A   Unknown